ONEWEB-0082, 45452

Orbit data source: Space-Track

ONEWEB-0082, 45452 is a payload satellite owned by One Web (UK) in LEO that was launched on Sat, 21 Mar 2020 UTC via a SOYUZ-2-1B launch vehicle from the Tyuratam Missile And Space Complex (TTMTR). Payload-class satellites include a variety of spacecraft equipped with specific instruments for various scientific and technological missions. These include communications satellites like Starlink; space stations such as the ISS; scientific satellites like the Hubble; Earth observation satellites from companies like Planet Labs, Umbra, and HawkEye 360; GPS; miniature CubeSats for education and research; and military/defense satellites.

Loading next visibility...
Identifier
45452, 2020-020AE
Orbit
LEO
Country
Flag of UKUK
Related business
Manufacturer
One Web
Mission
Operational Commercial Communications
Bus & Motor
ARROW, Unknown motor
Mass
148 kg wet, ~140 kg dry
Launch date (UTC)
2020-03-21 (5 years ago)
Launch vehicle
SOYUZ-2-1B
Launch site
Tyuratam Missile And Space Complex (TTMTR)
Object type
Payload
Rocket body
Debris
Shape & HBR
Trap Box + 2 Pan, 2.5 m
Radar Cross Section
2.957 m², Medium (>0.1 m² and < 1m²)

Expand to show TLE details & history
Last TLE update: 15 hours ago

TLE from 15 hours ago
0 ONEWEB-0082
1 45452U 20020AE  25258.51222082 -.00000422  00000-0 -12270-2 0  9992
2 45452  87.8786  75.7509 0001525  86.2514 273.8788 13.11414669266674
Epoch: 2025-09-15T12:17Z
TLE epoch observation values (Epoch: 2025-09-15T12:17:35.878Z)
Latitude
-0.00007°
Longitude
-103.36441°
Altitude
1,220.502 km
Speed
7.244 km/s
True Right ascension
05h 03m 00s
True Declination
0° 00' 00"
Sunlit
Object was in daylight at epoch
Visualization orbit readout
Latitude
Unknown
Longitude
Unknown
Altitude
Unknown
Speed
Unknown
Apparent Right ascension
Unknown
Apparent Declination
Unknown
Sunlit
N/A
Visualization observer readout
Local Sidereal Time
19:38:16
Azimuth
Unknown
Elevation
Unknown
Doppler factor
Unknown
Orbital elements
Apogee altitude
1,215.968 km
Perigee altitude
1,213.652 km
Semi-major axis
7,592.947 km
Eccentricity
0.00015
Inclination
87.8786°
RAAN
75.7509°
Arg. of periapsis
86.2514°
True anomaly
273.86136°
Mean anomaly
273.8788°
Eccentric anomaly
273.87008°
Mean motion
3.28041 °/min
Orbital period
109.74 mins
BSTAR
-0.001227
Loading maneuver chart data...
Computing Atmospheric mass density...
Loading historical data...
Loading historical data...
Loading historical data...
Loading historical data...
Loading historical data...
Loading historical data...
Loading historical data...

Documentation

Showing up to 5 results
|